Airfield :
LOGIN :

Register | Disclaimer

   EN    FR    IT 

 










Legend :    VFR   Marginal VFR   IFR   Intensive IFR   Very Intensive IFR
Visi :
Ceiling :
>= 8 km
>= 3000ft
5 to 8 km
1000 to 3000 ft
1500m to 5 km
500 to 1000 ft
800 to 1500m
200 to 500 ft
< 800m
< 200 ft
Symbols :   Thunderstorms  Fog  Heavy snow  Heavy precipitations  Wind > 20 kt
SIGMETs :     Misc.  Thunderstorms  Icing  Turbulence  Mountain Waves  Volcanic Ashes







- Airport Elevation : 741 ft
- IATA code : PED


LKPD - Pardubice AB

CURRENT METAR :
  • 200100Z 13003KT 120V190 CAVOK 16/13 Q1011

EXPIRED METARs :
  • 200000Z VRB01KT CAVOK 18/14 Q1011
  • 192300Z 13003KT 090V160 CAVOK 18/15 Q1011

TAF TAF LKPD
Valid from the 20 at 00:00 until the 21 at 00:00 UTC


192300Z 2000/2100 VRB02KT CAVOK
TEMPO 2000/2010 12006KT
TEMPO 2010/2018 27010KT 7000 SHRA BKN035TCU
PROB40
TEMPO 2011/2018 30016G26KT 4000 TSRA BKN030CB
BECMG 2021/2023 27008KT
No reported NOTAMs for that airfield.



MET'MAP, your aeronautical weather chart ! - Copyright ORBIFLY December 2007 - Disclaimer

ORBIFLY MET'MAP TEAM :

Programming & Development : Alexandra Zaïnal
Concept & Development : Baudouin d'Aumeries
Co-Development & Prog : Marc-Olivier Méhu
Technical & hardware support : Manuel Goepfert

Contact : metmap@orbifly.com




SOURCES & CREDITS :

   NOAA